Location: Capannuccia
(43.7000°N, 11.3000°E)
Time: 18:16:40
(UTC+00:00)

STARLINK-48 - Pass Details

Date: 07 June 2020
Orbit: 506 x 506 km, 53.0° (Epoch: 02 July)

Event Time Altitude Azimuth Distance (km) Brightness Sun altitude
Exits shadow 00:19:07 57° 106° (ESE) 600 3.7 -21.8°
Drops below altitude 10° 00:22:33 10° 60° (ENE) 1,721 6.8 -21.7°
Sets 00:24:45 0° 57° (ENE) 2,609 7.8 -21.5°
